Keystone Airpark, Keystone He, FL

9:43 PM EDT on April 27, 2017 (GMT -0400)
Keystone Airpark, Keystone He

Weather History for K42J - May, 2014

Change the Weather History Date:

Monday, May 12, 2014

  Actual Average (KGNV) Record (KGNV)
Temperature  
Mean Temperature 76 °F -  
Max Temperature 87 °F 86 °F 98 °F (2011)
Min Temperature 64 °F 60 °F 48 °F (1924)
Cooling Degree Days 10    
Growing Degree Days 26 (Base 50)    
Moisture  
Dew Point 66 °F    
Average Humidity 76    
Maximum Humidity 100    
Minimum Humidity 40    
Precipitation  
Precipitation 0.00 in - - ()
Sea Level Pressure  
Sea Level Pressure 30.15 in    
Wind  
Wind Speed 5 mph (ESE)    
Max Wind Speed 15 mph    
Max Gust Speed 18 mph    
Visibility 10 miles    
Events      
Averages and records for this station are not official NWS values.
T = Trace of Precipitation, MM = Missing Value Source: NWS Daily Summary

Daily Weather History Graph

Daily Weather History Graph

Search for Another Location

Airport or City:

Trip Planner

Search our weather history database for the weather conditions in past years. The results will help you decide how hot, cold, wet, or windy it might be!

Date:

Astronomy

May. 12, 2014 Rise Set
Actual Time 6:37 AM EDT 8:12 PM EDT
Civil Twilight 6:11 AM EDT 8:38 PM EDT
Nautical Twilight 5:40 AM EDT 9:09 PM EDT
Astronomical Twilight 5:07 AM EDT 9:42 PM EDT
Moon 6:17 PM EDT (5/12) 5:04 AM EDT (5/12)
Length of Visible Light 14h 27m
Length of Day
13h 35m
Waxing Gibbous, 95% of the Moon is Illuminated
May 12
Waxing Gibbous
May 14
Full
May 21
Last Quarter
May 28
New
Jun 5
First Quarter

Hourly Weather History & Observations

Time (EDT) Temp. Heat Index Dew Point Humidity Pressure Visibility Wind Dir Wind Speed Gust Speed Precip Events Conditions
12:35 AM 71.6 °F - 69.8 °F 94% 30.15 in 10.0 mi East 3.5 mph - N/A   Clear
12:55 AM 69.8 °F - 69.8 °F 100% 30.15 in 10.0 mi East 4.6 mph - N/A   Clear
1:15 AM 69.8 °F - 69.8 °F 100% 30.14 in 10.0 mi East 3.5 mph - N/A   Clear
1:35 AM 69.8 °F - 69.8 °F 100% 30.14 in 10.0 mi ESE 3.5 mph - N/A   Clear
1:55 AM 69.8 °F - 69.8 °F 100% 30.13 in 10.0 mi SE 3.5 mph - N/A   Clear
2:15 AM 69.8 °F - 69.8 °F 100% 30.13 in 10.0 mi SE 3.5 mph - N/A   Clear
2:35 AM 69.8 °F - 69.8 °F 100% 30.13 in 10.0 mi Calm Calm - N/A   Clear
2:55 AM 69.8 °F - 69.8 °F 100% 30.13 in 10.0 mi Calm Calm - N/A   Clear
3:15 AM 69.8 °F - 68.0 °F 94% 30.13 in 10.0 mi Calm Calm - N/A   Clear
3:55 AM 68.0 °F - 68.0 °F 100% 30.12 in 10.0 mi East 3.5 mph - N/A   Clear
4:15 AM 68.0 °F - 68.0 °F 100% 30.12 in 10.0 mi ESE 3.5 mph - N/A   Clear
4:35 AM 68.0 °F - 68.0 °F 100% 30.13 in 10.0 mi ESE 3.5 mph - N/A   Clear
4:55 AM 66.2 °F - 66.2 °F 100% 30.13 in 10.0 mi East 3.5 mph - N/A   Clear
5:15 AM 66.2 °F - 66.2 °F 100% 30.13 in 10.0 mi ESE 4.6 mph - N/A   Clear
5:35 AM 66.2 °F - 66.2 °F 100% 30.13 in 9.0 mi East 3.5 mph - N/A   Clear
5:55 AM 66.2 °F - 66.2 °F 100% 30.13 in 10.0 mi ESE 3.5 mph - N/A   Clear
6:15 AM 66.2 °F - 66.2 °F 100% 30.14 in 9.0 mi East 3.5 mph - N/A   Clear
6:35 AM 64.4 °F - 64.4 °F 100% 30.15 in 8.0 mi Calm Calm - N/A   Clear
6:55 AM 64.4 °F - 64.4 °F 100% 30.15 in 5.0 mi East 3.5 mph - N/A   Clear
7:15 AM 66.2 °F - 66.2 °F 100% 30.17 in 6.0 mi East 3.5 mph - N/A   Clear
7:35 AM 68.0 °F - 68.0 °F 100% 30.17 in 5.0 mi East 3.5 mph - N/A   Clear
7:55 AM 69.8 °F - 69.8 °F 100% 30.18 in 9.0 mi East 4.6 mph - N/A   Clear
8:15 AM 71.6 °F - 69.8 °F 94% 30.18 in 10.0 mi ESE 4.6 mph - N/A   Clear
8:55 AM 75.2 °F - 69.8 °F 83% 30.19 in 10.0 mi SE 6.9 mph - N/A   Clear
9:15 AM 77.0 °F - 69.8 °F 78% 30.19 in 10.0 mi SSE 10.4 mph - N/A   Clear
9:35 AM 78.8 °F - 68.0 °F 69% 30.19 in 10.0 mi ESE 10.4 mph - N/A   Clear
10:35 AM 80.6 °F 82.7 °F 66.2 °F 61% 30.20 in 10.0 mi SE 11.5 mph - N/A   Clear
10:55 AM 80.6 °F 82.7 °F 66.2 °F 61% 30.20 in 10.0 mi ESE 10.4 mph - N/A   Partly Cloudy
11:35 AM 82.4 °F 83.9 °F 64.4 °F 54% 30.20 in 10.0 mi SSE 8.1 mph - N/A   Partly Cloudy
11:55 AM 82.4 °F 83.9 °F 64.4 °F 54% 30.20 in 10.0 mi SSE 6.9 mph - N/A   Mostly Cloudy
12:15 PM 84.2 °F 85.6 °F 64.4 °F 51% 30.20 in 10.0 mi SE 3.5 mph - N/A   Mostly Cloudy
12:35 PM 84.2 °F 85.0 °F 62.6 °F 48% 30.20 in 10.0 mi ESE 9.2 mph - N/A   Scattered Clouds
12:55 PM 84.2 °F 84.4 °F 60.8 °F 45% 30.19 in 10.0 mi ESE 8.1 mph - N/A   Scattered Clouds
1:15 PM 84.2 °F 85.0 °F 62.6 °F 48% 30.18 in 10.0 mi ENE 6.9 mph - N/A   Scattered Clouds
1:35 PM 84.2 °F 84.4 °F 60.8 °F 45% 30.18 in 10.0 mi East 4.6 mph - N/A   Scattered Clouds
1:55 PM 86.0 °F 86.1 °F 60.8 °F 43% 30.17 in 10.0 mi ENE 5.8 mph - N/A   Scattered Clouds
2:15 PM 87.8 °F 87.6 °F 60.8 °F 40% 30.17 in 10.0 mi SE 4.6 mph - N/A   Scattered Clouds
2:35 PM 86.0 °F 86.6 °F 62.6 °F 45% 30.17 in 10.0 mi ESE 4.6 mph - N/A   Scattered Clouds
4:15 PM 84.2 °F 85.6 °F 64.4 °F 51% 30.14 in 10.0 mi East 15.0 mph 18.4 mph N/A   Mostly Cloudy
4:35 PM 84.2 °F 85.0 °F 62.6 °F 48% 30.14 in 10.0 mi East 12.7 mph 16.1 mph N/A   Mostly Cloudy
4:55 PM 84.2 °F 85.0 °F 62.6 °F 48% 30.14 in 10.0 mi ESE 10.4 mph - N/A   Scattered Clouds
5:15 PM 84.2 °F 84.4 °F 60.8 °F 45% 30.14 in 10.0 mi ESE 12.7 mph - N/A   Partly Cloudy
5:35 PM 84.2 °F 84.4 °F 60.8 °F 45% 30.13 in 10.0 mi SE 12.7 mph - N/A   Clear
5:55 PM 84.2 °F 83.8 °F 59.0 °F 42% 30.13 in 10.0 mi East 12.7 mph 17.3 mph N/A   Clear
6:15 PM 82.4 °F 82.9 °F 60.8 °F 48% 30.13 in 10.0 mi East 12.7 mph - N/A   Clear
6:35 PM 82.4 °F 82.9 °F 60.8 °F 48% 30.13 in 10.0 mi East 12.7 mph - N/A   Clear
7:15 PM 80.6 °F 81.8 °F 62.6 °F 54% 30.13 in 10.0 mi East 9.2 mph - N/A   Clear
7:35 PM 80.6 °F 81.8 °F 62.6 °F 54% 30.13 in 10.0 mi East 11.5 mph - N/A   Clear
7:55 PM 78.8 °F - 62.6 °F 57% 30.13 in 10.0 mi East 9.2 mph - N/A   Clear
8:15 PM 77.0 °F - 64.4 °F 65% 30.13 in 10.0 mi East 5.8 mph - N/A   Clear
8:35 PM 75.2 °F - 66.2 °F 73% 30.13 in 10.0 mi ESE 8.1 mph - N/A   Clear
8:55 PM 75.2 °F - 68.0 °F 78% 30.14 in 10.0 mi East 8.1 mph - N/A   Clear
9:15 PM 73.4 °F - 68.0 °F 83% 30.14 in 10.0 mi ESE 6.9 mph - N/A   Clear
9:35 PM 73.4 °F - 68.0 °F 83% 30.15 in 10.0 mi East 8.1 mph - N/A   Clear
9:55 PM 73.4 °F - 69.8 °F 88% 30.15 in 10.0 mi ESE 5.8 mph - N/A   Clear
10:15 PM 71.6 °F - 69.8 °F 94% 30.15 in 10.0 mi ESE 5.8 mph - N/A   Clear
10:35 PM 71.6 °F - 69.8 °F 94% 30.15 in 10.0 mi ESE 5.8 mph - N/A   Clear
11:15 PM 71.6 °F - 69.8 °F 94% 30.15 in 10.0 mi East 6.9 mph - N/A   Clear
11:35 PM 71.6 °F - 69.8 °F 94% 30.14 in 10.0 mi East 5.8 mph - N/A   Clear
11:55 PM 71.6 °F - 69.8 °F 94% 30.14 in 10.0 mi East 5.8 mph - N/A   Clear